Regional Weather Roundup
Issued by NWS

Home | Current Version | Previous Version | Graphics & Text | Print | Product List | Glossary On
Versions: 1 2 3 4 5 6 7 8 9 10 11 12 13 14 15 16 17 18 19 20 21 22 23 24 25 26 27 28 29 30 31 32 33 34 35 36 37 38 39 40 41 42 43 44 45 46 47 48 49 50
000
ASUS43 KLMK 280610
RWRKY
KENTUCKY REGIONAL WEATHER ROUNDUP
NATIONAL WEATHER SERVICE LOUISVILLE KY
200 AM EDT SUN AUG 28 2016

NOTE "FAIR" INDICATES FEW OR NO CLOUDS BELOW 12,000 FEET
WITH NO SIGNIFICANT WEATHER AND/OR OBSTRUCTIONS TO VISIBILITY.

KYZ001>023-026-027-061>063-070>075-280700-
WESTERN AND SOUTH CENTRAL KENTUCKY

CITY           SKY/WX    TMP DP  RH WIND       PRES   REMARKS
PADUCAH        CLEAR     75  73  93 CALM      30.09S
HENDERSON      CLOUDY    75  72  88 CALM      30.09F
OWENSBORO      CLEAR     79  77  94 CALM      30.11S
HOPKINSVILLE   PTCLDY    74  72  93 S1        30.10S
BOWLING GREEN  CLEAR     74  72  93 E3        30.12F
GLASGOW        PTCLDY    71  71 100 E3        30.13F
$$

KYZ024-025-028>034-038-045-046-053-280700-
NORTH CENTRAL KENTUCKY

CITY           SKY/WX    TMP DP  RH WIND       PRES   REMARKS
LOUISVILLE/SDF PTCLDY    80  71  74 CALM      30.11F
LOUISVILLE/LOU PTCLDY    78  72  81 CALM      30.12F
FORT KNOX      CLEAR     70  70  98 N1        30.11F
$$

KYZ035>037-039>044-047>052-055>060-089>105-280700-
NORTHEAST KENTUCKY

CITY           SKY/WX    TMP DP  RH WIND       PRES   REMARKS
LEXINGTON      CLOUDY    73  70  90 W3        30.15S
COVINGTON      MOCLDY    74  73  97 N6        30.16S
FRANKFORT      CLOUDY    76  71  85 CALM      30.13S
$$

KYZ054-064>069-076>088-106>120-280700-
SOUTHEAST KENTUCKY

CITY           SKY/WX    TMP DP  RH WIND       PRES   REMARKS
JACKSON        CLOUDY    79  67  66 E3        30.16F
LONDON         CLOUDY    74  69  85 W6        30.16R
SOMERSET       CLOUDY    70  70 100 CALM      30.15S
MIDDLESBORO    PTCLDY    68  68 100 CALM      30.17F
MONTICELLO     CLEAR    N/A N/A N/A W7        30.17R
$$





USA.gov is the U.S. government's official web portal to all federal, state and local government web resources and services.